This is the latest recevied weather packets stored in our database for station/object KK4WXG. If no packets are shown the sender has not sent any weather packets the latest 10 day(s).
| Time | Temp. | Humidity | Pressure | Rain* | Wind** | Luminosity | Snow |
|---|---|---|---|---|---|---|---|
| 1778256037 | 18.89° C | 37% | 1014.1 hPa | 0 mm | - | 985 W/m² | - |
| 1778255734 | 18.33° C | 44% | 1014.3 hPa | 0 mm | - | 959 W/m² | - |
| 1778255431 | 17.78° C | 37% | 1014.2 hPa | 0 mm | - | 970 W/m² | - |
| 1778255128 | 18.89° C | 40% | 1014 hPa | 0 mm | - | 993 W/m² | - |
| 1778254825 | 18.33° C | 36% | 1014 hPa | 0 mm | - | 939 W/m² | - |
| 1778254521 | 18.33° C | 40% | 1014 hPa | 0 mm | - | 930 W/m² | - |
| 1778254218 | 18.33° C | 39% | 1014.4 hPa | 0 mm | - | 919 W/m² | - |
| 1778253915 | 17.78° C | 38% | 1014.1 hPa | 0 mm | - | 898 W/m² | - |
| 1778253611 | 17.78° C | 38% | 1014.3 hPa | 0 mm | - | 898 W/m² | - |
| 1778253308 | 17.22° C | 43% | 1014.4 hPa | 0 mm | - | 894 W/m² | - |
| 1778253004 | 17.22° C | 41% | 1014.5 hPa | 0 mm | - | 885 W/m² | - |
| 1778252701 | 17.22° C | 42% | 1014.6 hPa | 0 mm | - | 855 W/m² | - |
| 1778252396 | 17.22° C | 42% | 1014.8 hPa | 0 mm | - | 858 W/m² | - |
| 1778252094 | 17.22° C | 45% | 1014.7 hPa | 0 mm | - | 872 W/m² | - |
| 1778251790 | 16.67° C | 38% | 1014.9 hPa | 0 mm | - | 832 W/m² | - |
| 1778251488 | 16.67° C | 43% | 1014.8 hPa | 0 mm | - | 819 W/m² | - |
| 1778251185 | 16.67° C | 39% | 1014.9 hPa | 0 mm | - | 807 W/m² | - |
| 1778250883 | 16.67° C | 42% | 1014.8 hPa | 0 mm | - | 793 W/m² | - |
| 1778250579 | 16.11° C | 45% | 1014.7 hPa | 0 mm | - | 778 W/m² | - |
| 1778250277 | 16.11° C | 44% | 1014.8 hPa | 0 mm | - | 767 W/m² | - |
| 1778249972 | 16.11° C | 45% | 1014.8 hPa | 0 mm | - | 751 W/m² | - |
| 1778249669 | 15.56° C | 47% | 1014.8 hPa | 0 mm | - | 739 W/m² | - |
| 1778249367 | 15.56° C | 49% | 1014.6 hPa | 0 mm | - | 718 W/m² | - |
| 1778249064 | 15.56° C | 44% | 1014.9 hPa | 0 mm | - | 708 W/m² | - |
| 1778248759 | 15.56° C | 45% | 1015 hPa | 0 mm | - | 690 W/m² | - |
* Rain latest hour (hover to see other rain measurements)
** Current wind speed in m/s (hover to see current wind gust speed)